Flag for U.S.A. Weather past 2 weeks in Sevierville, Tennessee, U.S.A.

Now
44 °F

Fog.


Feels Like: 44 °F
Forecast: 39 / 47 °F
Wind: No wind

Location: McGhee Tyson Airport

Current Time: Mar 1, 2015 at 10:56:10 PM

Latest Report: Mar 1, 2015 at 9:53 PM


Visibility: 3 mi

Pressure: 30.34 "Hg

Humidity: 96%

Dew point: 43 °F

Location of SeviervilleLocation

Historic Weather in Sevierville — Graph

°F

Sevierville temperature yesterday

Maximum temperature yesterday: 47 °F (at 4:53 PM)
Minimum temperature yesterday: 24 °F (at 2:53 AM)
Average temperature yesterday: 34 °F

Past Weeks' High & Low Weather Summary

 TemperatureHumidityPressure
High48 °F (Mar 1, 1:53 PM)100% (Feb 16, 9:54 PM)30.63 "Hg (Feb 16, 9:54 PM)
Low4 °F (Feb 19, 6:53 AM)25% (Feb 15, 3:53 PM)29.78 "Hg (Feb 26, 4:53 AM)
Average27 °F75%30.21 "Hg
* Reported Feb 14 8:53 PM — Mar 1 8:53 PM, Sevierville, Weather by CustomWeather, © 2015

Note: Actual official high and low records may vary slightly from our data, if they occured in-between our weather recording intervals... More about our weather records

Advertising

Sevierville weather history for previous 24 hours

 ConditionsComfort  
Time TempWeatherWind HumidityBarometerVisibility
8:53 PM
Sun, Mar 1
44 °FFog.8 mph96%30.33 "Hg4 mi
7:53 PM44 °FFog.3 mph96%30.34 "Hg4 mi
6:53 PM44 °FLight rain. Fog.3 mph93%30.34 "Hg4 mi
5:53 PM47 °FOvercast.6 mph80%30.34 "Hg10 mi
4:53 PM47 °FLight rain. Overcast.8 mph80%30.36 "Hg10 mi
3:53 PM47 °FLight rain. Overcast.6 mph74%30.36 "Hg8 mi
2:53 PM48 °FOvercast.7 mph66%30.37 "Hg10 mi
1:53 PM48 °FOvercast.3 mph61%30.37 "Hg10 mi
12:53 PM46 °FOvercast.6 mph63%30.42 "Hg10 mi
11:53 AM44 °FOvercast.No wind63%30.44 "Hg10 mi
10:53 AM43 °FOvercast.No wind62%30.44 "Hg10 mi
9:53 AM39 °FMostly cloudy.7 mph73%30.45 "Hg10 mi
8:53 AM39 °FPartly sunny.No wind67%30.47 "Hg10 mi
7:53 AM36 °FPartly sunny.No wind75%30.45 "Hg10 mi
6:53 AM34 °FPassing clouds.5 mph79%30.43 "Hg10 mi
5:53 AM35 °FPassing clouds.3 mph75%30.43 "Hg10 mi
4:53 AM33 °FPassing clouds.No wind78%30.43 "Hg10 mi
3:53 AM33 °FPassing clouds.3 mph82%30.43 "Hg10 mi
2:53 AM34 °FPassing clouds.3 mph82%30.43 "Hg10 mi
1:53 AM33 °FPassing clouds.6 mph78%30.44 "Hg10 mi
12:53 AM33 °FPassing clouds.7 mph82%30.45 "Hg10 mi
11:53 PM
Sat, Feb 28
37 °FPassing clouds.5 mph67%30.49 "Hg10 mi
10:53 PM38 °FPassing clouds.6 mph65%30.49 "Hg10 mi
Weather by CustomWeather, © 2015

See weather overviewHow to use our weather pages